Torna al catalogo

COSMOS 796

AttivoMilitareLEO
NORAD 8612·PAYLOAD·🇷🇺 Russia

Lanciato Jan 28, 1976 da Plesetsk Cosmodrome

Loading…

Prossimi Passaggi (prossime 24 ore)

TLE

AggiornatoSource: Space-Track

Epoca: Sep 14, 2026, 12:38 UTC

1 08612U 76008F   26257.52685278 -.00000008  00000-0  54186-4 0  9990
2 08612  74.0553 196.1139 0027018  79.7686  41.4458 12.43169679297646

Traccia COSMOS 796 in tempo reale con AllMySat

Download on the App Store